Dewpoint
20 20 20 20 20 20 20 19 18 17 16 15 15 15 14 13 10 9 5 1 -1 -1 -2 -3 -4 -3 -3 -2 -3 -5 -6 -7 -7 -8 -10 -11 -11 -11 -12 -13 -14 -14 -13 -13 -11 -10 -8 -9 -9 -7 -10 -5 -6 -5 -6 -6 -7 -7 -6 -8 -8 -6 -7 -7 -8 -7 -10 -11 -13 -14 -14 -14 -14 -13 -12 -11 -11 -10 -3 -7 -7 -4 -5 -2 -5
20 20 20 20 20 20 20 20 19 18 16 15 15 14 13 12 11 8 5 2 0 -0 -2 -1 -2 -2 -2 -3 -4 -5 -5 -5 -6 -8 -9 -9 -10 -11 -12 -13 -14 -14 -13 -13 -12 -11 -9 -3 -5 -3 -3 -3 -3 -4 -5 -5 -4 -7 -7 -5 -8 -6 -10 -7 -8 -8 -7 -10 -13 -14 -14 -13 -13 -13 -12 -12 -11 -9 -9 -8 -8 -7 -2 -6 -5
21 20 20 20 20 20 20 20 19 19 18 17 15 14 13 12 11 9 6 2 0 -0 0 -0 0 -1 -2 -2 -2 -2 -2 -4 -5 -6 -7 -8 -9 -10 -11 -12 -12 -12 -12 -12 -11 -7 -4 -3 -3 -2 -3 -3 -3 -3 -3 -4 -5 -5 -5 -4 -5 -7 -9 -9 -7 -7 -7 -9 -11 -12 -13 -13 -14 -13 -12 -11 -9 -9 -9 -8 -8 -5 -3 -6 -4
21 21 21 20 20 20 20 20 20 19 18 17 15 14 13 12 13 11 6 3 2 1 1 0 1 -1 -1 -1 -1 -1 -2 -2 -3 -5 -6 -8 -8 -8 -10 -11 -11 -10 -8 -9 -6 -3 -3 -3 -3 -3 -2 -2 -2 -5 -5 -4 -4 -5 -5 -5 -5 -5 -8 -9 -9 -6 -7 -8 -11 -12 -12 -13 -13 -12 -12 -10 -10 -9 -4 -4 -6 -3 -6 -3 -2
21 21 21 21 21 21 20 20 19 19 17 16 15 15 14 12 11 9 5 3 2 1 2 1 -0 -0 -0 1 -0 -1 -1 -1 -2 -5 -4 -6 -7 -8 -9 -9 -9 -8 -7 -5 -1 -2 -3 -2 -2 -1 -1 -3 -2 -4 -3 -4 -4 -4 -5 -5 -6 -5 -5 -5 -7 -8 -7 -8 -10 -11 -12 -13 -12 -11 -11 -11 -10 -7 -4 -3 -3 -3 -2 -6 -4
21 21 21 21 21 21 21 20 19 19 18 17 15 14 12 11 9 8 6 4 2 2 1 -0 1 0 1 1 1 0 -1 -2 -2 -3 -5 -6 -7 -7 -1 -8 -5 -7 -7 -5 -4 -1 -1 -1 -2 -0 0 -0 -2 -2 -2 -2 -3 -4 -4 -5 -5 -5 -5 -6 -9 -9 -7 -9 -11 -11 -11 -11 -10 -10 -10 -10 -10 -10 -6 -4 -3 -1 -2 -3 -2
21 22 22 22 22 22 21 20 19 18 17 15 14 13 12 11 8 6 6 5 1 1 1 1 3 3 2 2 2 2 1 0 -1 -3 -3 -4 -4 2 -2 -7 -6 -3 -1 -3 -2 -2 -1 -0 1 1 1 1 -0 -1 -1 -2 -2 -3 -3 -3 -3 -4 -5 -5 -6 -6 -6 -7 -7 -8 -8 -8 -10 -11 -11 -11 -10 -10 -11 -8 -7 -5 -4 -4 -4
21 21 22 21 21 21 21 19 18 17 16 15 15 13 12 9 7 5 5 3 2 2 3 4 3 3 2 2 2 1 -0 -1 -2 -2 -3 2 3 3 0 -0 -1 -1 -2 -1 -1 1 1 1 1 2 2 1 1 0 -0 -2 -3 -3 -3 -3 -4 -4 -5 -5 -6 -7 -8 -6 -6 -6 -8 -10 -10 -10 -9 -9 -10 -10 -10 -8 -8 -8 -6 -5 -4
19 20 20 20 20 20 19 18 17 17 16 14 13 11 9 7 6 3 4 3 4 4 4 5 4 3 2 1 -0 -1 1 4 3 3 4 5 4 2 1 0 0 -0 -0 -0 -0 1 2 2 2 2 3 3 2 2 1 1 -3 -5 -4 -3 -3 -4 -4 -5 -6 -8 -8 -7 -6 -6 -7 -9 -10 -10 -9 -10 -11 -11 -10 -10 -8 -10 -6 -6 -5
18 18 18 18 18 18 17 15 14 13 12 10 9 8 5 5 3 3 5 5 4 6 5 6 7 5 3 2 5 4 3 3 4 6 5 3 5 3 3 3 2 2 1 1 1 1 2 2 2 2 2 2 2 2 2 3 2 -1 -4 -5 -5 -4 -5 -5 -6 -7 -6 -6 -6 -7 -7 -7 -7 -9 -9 -10 -10 -9 -9 -9 -7 -8 -6 -5 -5
16 16 16 16 15 15 13 10 9 9 6 7 6 6 5 4 4 5 5 6 6 4 7 7 7 5 4 6 4 3 3 2 6 8 9 8 6 4 4 3 2 2 1 1 0 -0 1 2 1 2 2 1 2 3 3 3 3 3 3 2 0 -3 -5 -5 -5 -5 -6 -6 -6 -5 -6 -6 -6 -7 -8 -8 -9 -9 -9 -8 -6 -5 -6 -6 -7
15 15 14 13 12 11 10 7 7 7 6 5 5 4 5 5 5 3 5 4 5 6 5 6 5 6 5 5 5 3 2 4 8 9 10 10 10 6 5 4 3 3 2 1 1 0 -0 -0 1 1 1 1 1 1 2 2 3 3 3 4 4 4 5 -1 -4 -5 -5 -5 -6 -5 -5 -5 -5 -4 -4 -4 -7 -7 -6 -5 -5 -5 -5 -6 -6
12 11 11 9 8 7 5 4 4 4 4 5 3 8 7 5 6 5 4 4 4 4 5 3 5 4 5 5 4 3 3 6 8 9 9 10 11 9 5 7 6 5 4 4 3 2 1 1 1 2 1 3 2 1 0 0 2 3 3 4 4 5 10 11 9 -1 -3 -4 -5 -5 -5 -5 -4 -4 -2 -3 -1 -3 -3 -4 -4 -4 -4 -5 -6
7 8 7 6 5 3 4 3 4 3 4 3 4 6 4 4 3 4 2 2 2 2 1 2 3 4 4 3 3 2 2 4 8 8 9 10 11 11 9 9 8 8 8 6 5 4 3 3 2 2 3 2 2 2 1 0 -0 -0 1 2 3 3 5 7 5 6 5 1 -2 -4 -2 -2 -4 -2 0 2 -0 -2 -3 -4 -3 -4 -3 -4 -3
6 5 4 3 2 3 3 4 4 3 1 2 1 4 2 3 1 2 1 -1 1 1 -0 1 3 4 3 2 0 0 1 6 8 8 8 10 11 11 8 8 7 7 8 8 7 6 5 5 4 3 4 4 3 3 2 1 0 -1 -1 -1 1 2 2 2 3 3 3 4 3 2 1 2 1 1 1 2 1 0 -0 -1 -1 -1 -1 1 0
5 2 2 1 2 1 2 2 2 -0 -0 3 1 1 1 2 1 1 -1 -2 0 -2 -2 0 1 2 1 1 -0 -1 -1 7 8 8 9 11 12 7 7 7 6 6 6 7 6 5 5 5 4 5 5 4 5 7 6 3 1 0 -1 -1 -1 -0 1 4 9 9 4 3 2 2 3 4 8 3 3 2 2 2 1 -0 0 -1 -2 -4 -5
3 2 3 3 2 1 2 2 3 4 3 1 2 2 -0 -1 -2 0 -0 -2 -2 -3 -1 -1 -0 -0 1 0 -1 -2 -2 4 8 9 10 12 11 5 6 5 5 5 5 5 5 5 5 5 5 3 4 4 5 11 12 7 3 1 -1 -1 -1 -1 -1 1 9 12 11 11 12 13 13 13 13 13 13 13 6 3 0 -1 -2 -2 -4 -6 -7
5 3 3 1 1 -1 4 5 6 5 4 3 1 -0 0 1 -0 -0 -1 -2 -3 -1 -1 -2 -1 -1 -0 -0 -0 -2 -2 0 6 7 9 11 9 5 4 3 3 3 2 4 3 3 4 4 4 4 4 4 8 11 12 7 4 2 -0 -1 -1 -2 -1 -1 -1 1 11 11 10 12 13 12 12 13 13 14 13 11 2 -1 -1 -3 -5 -6 -8
5 4 2 0 -1 2 2 4 7 6 5 5 5 4 2 1 2 -0 -3 -1 -1 -2 -2 -2 -2 -2 -1 -1 0 -1 -2 -1 5 7 10 10 8 5 3 3 3 2 2 1 2 1 2 3 3 4 4 4 11 12 12 7 5 4 3 1 -1 -2 -1 -1 -2 -2 -2 -2 -1 0 1 4 3 2 3 7 9 9 7 5 4 1 -2 -3 -3
2 1 -0 1 3 6 6 6 6 7 7 7 6 5 4 2 1 -1 -2 -2 -3 -5 -4 -2 -1 -2 -2 -1 -1 -0 -1 -2 0 7 8 10 11 5 3 3 1 1 0 -1 -2 -1 -0 -0 1 5 10 11 11 11 10 11 5 5 4 2 0 -1 1 1 0 -1 -2 -2 -3 -2 -2 -2 -2 -2 -1 -1 0 0 1 3 4 3 0 -2 -3
2 1 -0 2 2 2 6 6 7 7 7 6 5 3 2 2 1 0 -0 -1 -2 -4 -2 -2 -2 -1 -1 -1 -2 -1 -1 -2 -1 7 10 11 11 10 4 4 3 2 0 -1 -2 -3 -3 -2 -2 1 5 9 10 11 11 11 11 6 4 3 2 2 5 -0 0 2 0 -1 -2 -2 -3 -2 -2 -2 -2 -2 -2 -2 -2 -0 -0 1 -0 -2 -3
2 1 1 1 3 4 5 5 6 5 5 4 3 2 1 2 1 1 -2 -2 -0 -1 -0 -2 -2 -3 -3 -2 -1 -2 -1 -1 -2 3 8 10 11 11 5 4 4 2 1 -1 -2 -2 -2 -3 -2 -0 3 8 10 10 11 11 10 3 3 11 11 10 4 3 1 -1 -1 -1 -2 -2 -3 -3 -3 -3 -2 -2 -2 -2 -2 -2 -2 -1 -2 -2 -4
5 3 6 4 5 5 5 5 3 3 2 2 2 1 1 1 0 -1 -1 -1 -1 -2 -2 -3 -4 -4 -4 -4 -3 -2 -2 -3 -1 -2 2 8 10 10 10 7 10 4 2 1 -1 -2 -2 -2 -2 1 7 9 10 10 10 9 6 4 10 12 11 10 7 4 4 1 -1 -2 -2 -3 -3 -3 -3 -3 -3 -3 -3 -1 -2 -2 -2 -2 -2 -2 -2
5 5 5 5 5 5 5 3 2 0 0 -0 -1 -0 -0 -0 -1 -3 -4 -4 -5 -5 -5 -5 -5 -6 -6 -6 -6 -5 -4 -4 -2 -1 -2 4 8 10 11 11 10 5 3 2 1 -1 -1 -1 -0 7 9 9 10 10 10 7 5 11 11 11 6 6 3 3 3 2 2 -0 -2 -3 -3 -3 -3 -4 -4 -3 -3 -0 -1 -3 -4 -4 -4 -5 -4
6 5 6 5 4 3 2 1 0 -0 0 -1 -2 -3 -2 -2 -4 -4 -4 -5 -6 -6 -7 -7 -7 -8 -8 -8 -8 -8 -7 -7 -6 -5 -2 -2 5 7 8 9 7 5 2 2 2 1 2 8 9 9 8 8 10 10 6 6 9 6 5 5 5 2 0 -1 -1 -1 -1 -1 -1 -2 -3 -4 -4 -3 -1 -1 -1 -1 -4 -7 -9 -8 -8 -8 -10
4 5 4 3 3 2 -0 -0 -1 -1 -1 -2 -3 -3 -4 -4 -5 -6 -6 -6 -7 -7 -7 -7 -8 -8 -8 -9 -9 -9 -8 -9 -8 -8 -6 -5 -4 1 5 3 2 2 1 0 1 4 8 8 6 2 3 3 1 1 1 1 2 2 2 2 0 -1 -1 -2 -3 -4 -5 -5 -5 -5 -5 -4 -3 -2 -1 -1 -2 -6 -7 -7 -8 -8 -9 -9 -9
3 3 3 2 2 1 -1 -2 -2 -1 -3 -3 -4 -5 -5 -5 -5 -6 -7 -7 -8 -8 -8 -8 -9 -9 -9 -10 -10 -10 -10 -10 -10 -10 -10 -10 -10 -8 -7 -6 -3 -2 -3 -4 -3 -4 -4 -3 -3 -2 -2 -2 -2 -1 -1 -1 -2 -3 -3 -3 -3 -4 -4 -4 -4 -5 -5 -6 -7 -7 -7 -6 -5 -4 -4 -4 -5 -6 -6 -8 -9 -9 -8 -8 -9
1 2 2 1 -1 -1 -2 -5 -5 -3 -3 -3 -5 -5 -5 -5 -6 -6 -7 -8 -9 -9 -9 -9 -10 -10 -11 -11 -11 -11 -11 -11 -11 -11 -11 -10 -10 -9 -9 -8 -8 -9 -8 -7 -6 -6 -6 -4 -4 -5 -6 -6 -7 -7 -7 -7 -6 -6 -7 -7 -7 -6 -5 -3 -2 -4 -5 -6 -7 -7 -7 -7 -7 -7 -6 -6 -7 -7 -7 -8 -9 -10 -10 -11 -12
0 0 0 -1 -1 -3 -3 -3 -3 -4 -4 -4 -4 -5 -6 -6 -6 -7 -5 -6 -7 -9 -9 -10 -9 -10 -10 -11 -11 -12 -12 -12 -11 -7 -7 -5 -7 -7 -7 -8 -8 -8 -5 -4 -5 -6 -6 -7 -7 -7 -7 -8 -8 -8 -9 -9 -9 -9 -8 -8 -9 -9 -9 -10 -10 -9 -7 -7 -8 -8 -9 -9 -9 -8 -7 -7 -8 -9 -8 -9 -9 -10 -11 -12 -13
-1 -1 -1 -1 -2 -3 -4 -4 -4 -5 -5 -5 -6 -5 -6 -3 -4 -7 -8 -4 -3 -1 1 -7 -9 -10 -11 -10 -10 -12 -12 -11 -0 7 9 9 3 3 2 3 2 -2 -1 -0 -1 -4 -5 -7 -7 -8 -8 -8 -9 -9 -9 -9 -10 -10 -10 -7 -9 -10 -10 -9 -10 -9 -9 -9 -8 -9 -10 -10 -10 -10 -9 -11 -11 -11 -11 -10 -12 -12 -13 -14 -15
-3 -3 -3 -3 -4 -5 -5 -6 -6 -6 -7 -7 -8 -9 -9 -8 1 6 2 -0 -2 3 6 8 9 4 0 -4 -5 -2 -1 -1 7 9 9 9 8 4 4 4 4 4 3 1 -1 -1 -3 -5 -6 -7 -8 -8 -9 -10 -9 -9 -9 -10 -10 -10 -10 -9 -9 -9 -9 -9 -9 -9 -9 -9 -9 -10 -11 -11 -11 -12 -12 -13 -13 -12 -12 -12 -13 -14 -15
-6 -5 -5 -5 -5 -6 -6 -7 -7 -8 -8 -8 -9 -10 -10 -11 -10 -7 0 1 4 8 9 9 10 8 5 3 3 1 3 3 3 8 8 8 3 3 4 7 8 6 2 2 -2 -4 -4 -4 -5 -7 -7 -8 -8 -8 -9 -10 -10 -10 -10 -10 -11 -10 -10 -10 -9 -9 -10 -10 -10 -10 -10 -10 -11 -11 -12 -12 -12 -13 -13 -13 -13 -13 -14 -14 -15
-7 -7 -6 -7 -7 -8 -8 -8 -9 -9 -9 -9 -10 -11 -11 -12 -12 -12 -11 -3 2 0 4 7 8 8 9 8 7 5 4 3 3 5 5 3 1 -1 1 8 6 2 1 -3 -5 -7 -7 -7 -8 -7 -7 -7 -8 -9 -9 -9 -10 -10 -10 -10 -11 -11 -10 -8 -7 -8 -9 -10 -10 -10 -11 -11 -11 -12 -12 -12 -13 -14 -14 -14 -14 -14 -14 -15 -15
-8 -9 -9 -8 -8 -9 -9 -9 -10 -10 -10 -10 -11 -12 -12 -12 -13 -13 -14 -14 -13 -9 -5 -3 -2 -2 -2 -2 4 6 6 6 4 -1 -3 1 6 5 -0 -2 5 3 -1 -5 -6 -8 -8 -9 -9 -9 -8 -8 -8 -9 -9 -8 -9 -10 -10 -10 -10 -10 -9 -8 -10 -10 -10 -11 -11 -11 -11 -11 -12 -13 -13 -13 -13 -13 -14 -14 -15 -15 -16 -16 -17
-10 -11 -12 -12 -10 -10 -10 -10 -10 -11 -11 -12 -12 -13 -13 -13 -13 -14 -14 -15 -15 -15 -15 -14 -10 -7 -9 -8 -7 -6 -6 -7 -7 -6 -3 4 3 -1 3 -7 -9 -10 -11 -11 -11 -11 -10 -11 -11 -12 -11 -11 -11 -12 -12 -12 -12 -12 -12 -12 -12 -12 -12 -12 -12 -12 -12 -13 -13 -12 -12 -12 -12 -13 -14 -14 -15 -15 -15 -15 -15 -15 -16 -17 -17
-10 -10 -10 -10 -10 -11 -11 -11 -11 -12 -12 -12 -12 -13 -13 -13 -13 -14 -13 -13 -14 -15 -15 -14 -14 -11 -9 -9 -9 -8 -8 -7 -7 -5 3 4 -1 -2 -7 -10 -11 -12 -13 -14 -14 -14 -14 -14 -14 -15 -15 -15 -14 -15 -14 -15 -14 -14 -13 -14 -14 -14 -14 -14 -14 -14 -14 -15 -15 -15 -14 -14 -14 -14 -15 -15 -15 -16 -16 -16 -17 -16 -16 -17 -17
-11 -11 -11 -11 -11 -11 -11 -11 -11 -12 -12 -12 -13 -13 -13 -13 -13 -13 -14 -14 -14 -14 -14 -14 -15 -14 -12 -13 -11 -10 -10 -10 -1 2 3 2 -2 -8 -12 -14 -15 -16 -16 -17 -17 -17 -17 -17 -17 -17 -17 -17 -17 -17 -16 -17 -16 -16 -15 -16 -15 -15 -16 -16 -17 -17 -17 -17 -17 -17 -17 -17 -17 -16 -17 -17 -17 -17 -17 -17 -17 -17 -17 -17 -18
-12 -12 -12 -11 -11 -12 -12 -12 -13 -13 -13 -13 -13 -13 -13 -13 -14 -14 -14 -15 -15 -15 -15 -15 -13 -15 -16 -16 -12 -13 -15 -13 -12 -12 -12 -13 -16 -17 -18 -19 -19 -19 -20 -20 -19 -19 -19 -19 -19 -19 -19 -19 -19 -19 -19 -19 -19 -19 -19 -18 -18 -18 -16 -18 -17 -18 -19 -20 -20 -20 -20 -20 -19 -19 -19 -19 -19 -19 -19 -18 -19 -19 -19 -19 -19
-11 -12 -13 -13 -14 -13 -13 -13 -13 -13 -13 -13 -13 -13 -14 -14 -14 -15 -15 -15 -15 -15 -16 -16 -16 -16 -16 -16 -16 -15 -17 -19 -19 -19 -19 -19 -19 -19 -20 -20 -20 -21 -20 -21 -20 -21 -21 -21 -21 -21 -21 -21 -21 -21 -21 -21 -21 -21 -21 -21 -21 -21 -21 -20 -20 -20 -20 -21 -22 -22 -23 -23 -23 -22 -21 -21 -21 -21 -21 -20 -20 -21 -21 -21 -21
-13 -13 -13 -13 -14 -14 -13 -13 -13 -14 -13 -13 -14 -14 -14 -14 -15 -15 -15 -15 -16 -16 -16 -16 -17 -17 -16 -16 -17 -18 -19 -19 -19 -20 -20 -20 -20 -20 -20 -20 -21 -21 -21 -21 -21 -22 -22 -22 -22 -22 -22 -22 -22 -22 -22 -22 -22 -22 -22 -23 -23 -23 -23 -22 -23 -22 -23 -23 -23 -23 -24 -24 -24 -24 -24 -23 -23 -23 -22 -23 -22 -22 -22 -23 -23
-14 -14 -14 -14 -14 -15 -15 -15 -14 -14 -14 -14 -14 -14 -14 -15 -15 -15 -16 -16 -16 -17 -17 -17 -17 -17 -16 -16 -13 -14 -17 -19 -19 -20 -20 -20 -20 -21 -21 -21 -22 -22 -22 -22 -22 -22 -23 -23 -23 -23 -23 -24 -24 -24 -23 -24 -24 -24 -24 -23 -24 -24 -23 -23 -23 -23 -23 -24 -24 -25 -25 -25 -25 -25 -26 -25 -23 -23 -24 -24 -24 -24 -23 -23 -23
-14 -14 -14 -14 -14 -15 -15 -14 -14 -14 -14 -14 -15 -15 -15 -15 -15 -16 -16 -16 -17 -17 -18 -18 -17 -17 -16 -14 -14 -13 -16 -18 -19 -20 -20 -21 -21 -22 -22 -22 -22 -22 -23 -23 -23 -23 -24 -24 -24 -24 -24 -24 -25 -25 -25 -25 -25 -25 -25 -25 -24 -24 -24 -24 -24 -23 -24 -24 -24 -25 -25 -26 -26 -26 -26 -23 -26 -26 -25 -25 -25 -25 -25 -25 -24
-15 -15 -15 -15 -14 -14 -14 -14 -14 -14 -14 -14 -15 -15 -15 -15 -16 -16 -17 -17 -17 -18 -18 -18 -18 -18 -18 -17 -17 -17 -19 -20 -20 -21 -21 -22 -22 -22 -23 -23 -23 -23 -23 -23 -23 -24 -24 -24 -25 -25 -25 -25 -25 -25 -26 -26 -26 -26 -26 -25 -25 -25 -25 -24 -24 -24 -24 -24 -25 -25 -25 -26 -26 -27 -27 -27 -26 -27 -27 -27 -26 -26 -26 -26 -26
-15 -15 -14 -14 -14 -14 -14 -14 -15 -15 -15 -15 -16 -16 -16 -16 -17 -17 -17 -18 -18 -18 -18 -19 -19 -19 -19 -19 -19 -20 -21 -21 -22 -22 -22 -23 -23 -23 -24 -24 -24 -24 -24 -24 -25 -25 -25 -26 -26 -26 -25 -25 -25 -24 -25 -25 -25 -25 -25 -25 -25 -25 -25 -25 -25 -26 -26 -26 -26 -26 -26 -26 -26 -27 -27 -27 -27 -28 -28 -27 -27 -27 -27 -27 -26
-14 -14 -14 -14 -13 -14 -14 -14 -14 -15 -15 -16 -16 -17 -17 -17 -18 -18 -18 -18 -19 -19 -19 -20 -20 -20 -21 -21 -21 -22 -22 -22 -22 -22 -23 -24 -24 -24 -24 -24 -24 -25 -25 -25 -26 -25 -25 -26 -26 -26 -26 -27 -26 -25 -25 -26 -24 -24 -25 -25 -28 -29 -27 -25 -25 -25 -25 -26 -26 -27 -28 -28 -28 -28 -28 -28 -28 -28 -29 -28 -28 -27 -27 -27 -27
-14 -14 -14 -15 -15 -15 -15 -15 -15 -15 -16 -16 -17 -17 -17 -17 -17 -18 -18 -19 -19 -20 -20 -20 -21 -21 -21 -22 -22 -22 -22 -23 -23 -24 -24 -24 -24 -25 -25 -26 -26 -26 -26 -27 -26 -25 -26 -27 -27 -27 -27 -26 -25 -25 -25 -25 -26 -25 -23 -27 -24 -25 -26 -25 -25 -26 -26 -27 -27 -28 -28 -28 -28 -28 -28 -29 -29 -29 -29 -29 -28 -28 -28 -28 -27
-14 -14 -15 -15 -15 -15 -16 -16 -16 -17 -17 -17 -17 -18 -18 -18 -19 -19 -19 -19 -20 -20 -21 -21 -22 -22 -22 -22 -23 -23 -23 -23 -24 -25 -24 -24 -25 -25 -26 -26 -26 -27 -27 -27 -26 -27 -26 -26 -26 -26 -26 -25 -25 -25 -25 -27 -26 -27 -23 -22 -23 -23 -23 -24 -25 -25 -25 -26 -27 -28 -28 -28 -29 -29 -29 -28 -29 -29 -29 -29 -29 -28 -28 -28 -28
-14 -14 -15 -15 -15 -16 -16 -16 -17 -18 -18 -18 -18 -18 -18 -19 -20 -20 -20 -21 -21 -21 -21 -22 -22 -22 -22 -23 -23 -23 -24 -24 -24 -25 -25 -26 -26 -26 -26 -26 -27 -28 -27 -27 -27 -27 -27 -27 -26 -26 -26 -25 -25 -25 -25 -24 -24 -24 -24 -23 -23 -23 -23 -23 -24 -25 -26 -27 -27 -27 -28 -27 -28 -29 -29 -29 -29 -30 -30 -30 -29 -29 -28 -28 -28
-14 -14 -15 -16 -16 -16 -17 -17 -18 -18 -18 -19 -19 -19 -20 -20 -20 -21 -21 -21 -22 -22 -22 -23 -23 -23 -23 -23 -24 -24 -24 -24 -25 -26 -26 -26 -26 -27 -27 -27 -26 -27 -28 -28 -28 -28 -28 -28 -27 -27 -26 -26 -27 -29 -25 -24 -23 -24 -24 -24 -23 -22 -23 -23 -24 -26 -25 -26 -27 -27 -27 -27 -28 -29 -29 -29 -30 -30 -30 -30 -29 -29 -29 -28 -28
-14 -15 -16 -16 -17 -17 -18 -18 -19 -19 -19 -20 -20 -21 -21 -21 -21 -22 -22 -22 -22 -23 -23 -23 -23 -24 -24 -24 -24 -25 -25 -25 -26 -26 -27 -27 -28 -27 -28 -27 -27 -28 -29 -29 -29 -28 -28 -27 -27 -26 -26 -27 -32 -26 -31 -24 -24 -24 -25 -25 -23 -24 -23 -23 -23 -24 -25 -25 -26 -26 -27 -28 -28 -29 -29 -29 -29 -30 -30 -30 -30 -29 -29 -29 -29
-16 -16 -17 -17 -18 -19 -19 -20 -20 -20 -21 -21 -21 -22 -22 -22 -22 -22 -23 -23 -23 -24 -24 -24 -24 -24 -24 -25 -25 -25 -25 -26 -26 -27 -27 -28 -28 -28 -28 -28 -29 -29 -29 -28 -28 -28 -27 -26 -26 -26 -26 -33 -24 -24 -24 -25 -25 -25 -25 -25 -25 -24 -24 -24 -24 -24 -24 -24 -26 -27 -28 -28 -29 -29 -30 -30 -30 -30 -30 -30 -30 -30 -30 -29 -29